This is the latest recevied weather packets stored in our database for station/object KF0ZH. If no packets are shown the sender has not sent any weather packets the latest 10 day(s).
| Time | Temp. | Humidity | Pressure | Rain* | Wind** | Luminosity | Snow |
|---|---|---|---|---|---|---|---|
| 1777792563 | 15° C | 56% | 1004.5 hPa | 0 mm | 2.24 m/s, 229° | - | - |
| 1777791963 | 15° C | 56% | 1004.7 hPa | 0 mm | 1.79 m/s, 164° | - | - |
| 1777791663 | 15.56° C | 56% | 1004.8 hPa | 0 mm | 1.79 m/s, 181° | - | - |
| 1777790165 | 15.56° C | 54% | 1005.3 hPa | 0 mm | 4.47 m/s, 171° | - | - |
| 1777789864 | 15.56° C | 54% | 1005.4 hPa | 0 mm | 0 m/s | - | - |
| 1777789563 | 16.11° C | 54% | 1005.4 hPa | 0 mm | 3.58 m/s, 225° | - | - |
| 1777788363 | 15° C | 59% | 1005.4 hPa | 0 mm | 3.13 m/s, 246° | - | - |
| 1777788063 | 15.56° C | 59% | 1005.8 hPa | 0 mm | 0.89 m/s, 230° | - | - |
| 1777787463 | 15.56° C | 57% | 1006.1 hPa | 0 mm | 4.02 m/s, 208° | - | - |
| 1777787163 | 15° C | 56% | 1006.2 hPa | 0 mm | 3.13 m/s, 232° | - | - |
| 1777786864 | 15° C | 56% | 1006.3 hPa | 0 mm | 4.92 m/s, 232° | - | - |
| 1777785963 | 13.89° C | 56% | 1006.3 hPa | 0 mm | 0 m/s | - | - |
| 1777785662 | 13.89° C | 57% | 1006.4 hPa | 0 mm | 0 m/s | - | - |
| 1777785363 | 13.89° C | 57% | 1006.4 hPa | 0 mm | 1.34 m/s, 161° | - | - |
| 1777785063 | 13.89° C | 57% | 1006.5 hPa | 0 mm | 0 m/s | - | - |
| 1777784462 | 13.89° C | 58% | 1006.3 hPa | 0 mm | 0 m/s | - | - |
| 1777784162 | 13.89° C | 57% | 1006.4 hPa | 0 mm | 0 m/s | - | - |
| 1777783863 | 14.44° C | 56% | 1006.4 hPa | 0 mm | 0 m/s | - | - |
| 1777783565 | 13.89° C | 56% | 1006.2 hPa | 0 mm | 2.24 m/s, 174° | - | - |
| 1777782964 | 13.89° C | 55% | 1006.5 hPa | 0 mm | 2.24 m/s, 177° | - | - |
| 1777782665 | 14.44° C | 55% | 1006.5 hPa | 0 mm | 2.24 m/s, 208° | - | - |
| 1777782362 | 14.44° C | 55% | 1006.6 hPa | 0 mm | 1.34 m/s, 149° | - | - |
| 1777782064 | 14.44° C | 55% | 1006.7 hPa | 0 mm | 0 m/s | - | - |
| 1777780863 | 14.44° C | 54% | 1006.9 hPa | 0 mm | 0 m/s | - | - |
| 1777780562 | 15° C | 54% | 1007 hPa | 0 mm | 0 m/s | - | - |
* Rain latest hour (hover to see other rain measurements)
** Current wind speed in m/s (hover to see current wind gust speed)